time_stamp(utc),avg(mph),gust(mph),direction(deg),12m_air_temp(f),sonic_u(cm/s),sonic_v(cm/s),sonic_w(cm/s),pressure,2m_air_temp(f),pyranometer(W/m^2)
"2018-03-28 00:02:58+00",8.6,9.6,,37.8,-268,-278,7,1025.78,37.9,0
"2018-03-28 00:07:58+00",7.3,8.3,,37.8,-241,-210,19,1025.8,38,0
"2018-03-28 00:12:58+00",8.1,8.1,,37.8,-247,-268,-1,1025.83,38,0
"2018-03-28 00:17:58+00",6.5,7.5,,37.9,-212,-186,25,1025.66,38,0
"2018-03-28 00:22:58+00",6.0,7.0,,38,-181,-196,18,1025.72,38.1,0
"2018-03-28 00:27:58+00",6.0,7.0,,37.9,-183,-188,6,1025.5,38.1,0
"2018-03-28 00:32:58+00",5.4,6.4,,37.9,-89,-219,15,1025.55,38.1,0
"2018-03-28 00:37:58+00",7.4,8.4,,37.9,-230,-247,5,1025.55,38,0
"2018-03-28 00:42:58+00",9.6,10.6,,38,-363,-220,11,1025.75,38.1,0
"2018-03-28 00:47:58+00",8.9,9.9,,38,-299,-240,17,1025.83,38.2,0
"2018-03-28 00:52:58+00",6.6,7.6,,38,-227,-165,11,1025.72,38.2,0
"2018-03-28 00:57:58+00",5.9,6.9,,38.1,-182,-183,8,1025.7,38.2,0
"2018-03-28 01:02:58+00",4.9,5.9,,38.1,-145,-152,6,1025.66,38.2,0
"2018-03-28 01:07:58+00",4.9,5.9,,38.1,-148,-154,4,1025.77,38.2,0
"2018-03-28 01:12:58+00",3.2,4.2,,38.1,-89,-96,13,1025.68,38.2,0
"2018-03-28 01:17:58+00",3.8,4.8,,38.2,-124,-103,26,1025.65,38.2,0
"2018-03-28 01:22:58+00",3.5,3.5,,38.2,-102,-96,9,1025.7,38.3,0
"2018-03-28 01:27:58+00",6.0,7.0,,38.2,-185,-198,-3,1025.8,38.3,0
"2018-03-28 01:32:58+00",4.2,5.2,,38.2,-112,-143,9,1025.86,38.3,0
"2018-03-28 01:37:58+00",3.3,4.3,,38.2,-72,-121,7,1025.78,38.3,0
"2018-03-28 01:42:58+00",3.5,4.5,,38.2,-59,-129,-2,1025.55,38.2,0
"2018-03-28 01:47:58+00",3.7,4.7,,38.2,12,-140,4,1025.48,38.2,0
"2018-03-28 01:52:58+00",4.1,5.1,,38.2,-23,-160,1,1025.29,38.2,0
"2018-03-28 01:57:58+00",4.6,5.6,,38.2,46,-185,1,1025.18,38.2,0
"2018-03-28 02:02:58+00",5.0,6.0,,38.2,24,-206,-1,1025.04,38.2,0
"2018-03-28 02:07:58+00",4.8,5.8,,38.2,32,-210,-5,1024.97,38.2,0
"2018-03-28 02:12:58+00",5.3,6.3,,38.2,1,-214,-6,1024.9,38.1,0
"2018-03-28 02:17:58+00",6.1,7.1,,38.2,-62,-248,-1,1024.89,38.1,0
"2018-03-28 02:22:58+00",5.0,7.0,,38.2,-38,-207,4,1024.87,38.2,0
"2018-03-28 02:27:58+00",5.7,7.7,,38.2,-9,-240,-2,1024.57,38.2,0
"2018-03-28 02:32:58+00",6.1,7.1,,38.2,27,-261,4,1024.38,38.2,0
"2018-03-28 02:37:58+00",6.8,8.8,,38.2,-31,-280,-11,1024.27,38.2,0
"2018-03-28 02:42:58+00",6.2,9.2,,38.3,-30,-253,3,1024.22,38.2,0
"2018-03-28 02:47:58+00",5.4,7.4,,38.2,-19,-226,2,1024.27,38.2,0
"2018-03-28 02:52:58+00",7.4,9.4,,38.3,-63,-304,-5,1024.25,38.2,0
"2018-03-28 02:57:58+00",8.5,9.5,,38.3,-110,-345,1,1024.32,38.2,0
"2018-03-28 03:02:58+00",7.6,9.6,,38.4,-104,-300,-6,1024.16,38.3,0
"2018-03-28 03:07:58+00",9.8,10.8,,38.4,-176,-382,-8,1024.07,38.3,0
"2018-03-28 03:12:58+00",9.2,11.2,,38.3,-120,-376,-2,1023.99,38.3,0
"2018-03-28 03:17:58+00",8.5,9.5,,38.4,-127,-341,2,1023.9,38.4,0
"2018-03-28 03:22:58+00",10.5,11.5,,38.3,-185,-403,-4,1023.77,38.3,0
"2018-03-28 03:27:58+00",8.6,11.6,,38.4,-205,-323,14,1023.91,38.4,0
"2018-03-28 03:32:58+00",8.5,9.5,,38.4,-235,-303,15,1024.02,38.4,0
"2018-03-28 03:37:58+00",9.4,10.4,,38.4,-248,-345,10,1023.77,38.4,0
"2018-03-28 03:42:58+00",9.9,10.9,,38.4,-319,-313,-1,1023.86,38.4,0
"2018-03-28 03:47:58+00",8.9,9.9,,38.4,-220,-328,-4,1023.75,38.5,0
"2018-03-28 03:52:58+00",11.1,12.1,,38.4,-332,-387,2,1023.57,38.4,0
"2018-03-28 03:57:58+00",9.3,10.3,,38.4,-239,-340,13,1023.42,38.5,0
"2018-03-28 04:02:58+00",10.3,12.3,,38.4,-241,-383,0,1023.21,38.4,0
"2018-03-28 04:07:58+00",9.9,10.9,,38.3,-209,-378,0,1023.04,38.2,0
"2018-03-28 04:12:58+00",10.0,12.0,,38.3,-127,-408,-4,1022.76,38.2,0
"2018-03-28 04:17:58+00",7.0,9.0,,38.3,-112,-278,19,1022.85,38.2,0
"2018-03-28 04:22:58+00",7.4,8.4,,38.4,-135,-287,5,1022.9,38.3,0
"2018-03-28 04:27:58+00",7.1,8.1,,38.5,-193,-253,-1,1023.07,38.3,0
"2018-03-28 04:32:58+00",8.9,9.9,,38.5,-266,-300,5,1022.99,38.4,0
"2018-03-28 04:37:58+00",6.8,8.8,,38.5,-225,-206,17,1022.98,38.5,0
"2018-03-28 04:42:58+00",8.9,9.9,,38.6,-243,-309,0,1022.78,38.5,0
"2018-03-28 04:47:58+00",7.8,7.8,,38.6,-235,-259,4,1022.83,38.5,0
"2018-03-28 04:52:58+00",7.7,9.7,,38.6,-233,-257,6,1022.68,38.6,0
"2018-03-28 04:57:58+00",7.1,8.1,,38.7,-150,-268,0,1022.54,38.7,0
"2018-03-28 05:02:58+00",6.7,8.7,,38.7,-204,-222,26,1022.48,38.7,0
"2018-03-28 05:07:58+00",8.0,9.0,,38.7,-232,-269,5,1022.46,38.7,0
"2018-03-28 05:12:58+00",8.4,9.4,,38.7,-321,-191,25,1022.59,38.7,0
"2018-03-28 05:17:58+00",7.0,8.0,,38.8,-295,-109,21,1022.89,38.8,0
"2018-03-28 05:22:58+00",9.2,10.2,,38.8,-387,-134,17,1022.84,38.8,0
"2018-03-28 05:27:58+00",7.9,8.9,,38.8,-254,-226,2,1022.69,38.8,0
"2018-03-28 05:32:58+00",7.2,8.2,,38.8,-252,-182,10,1022.59,38.8,0
"2018-03-28 05:37:58+00",7.3,9.3,,38.8,-260,-180,28,1022.59,38.8,0
"2018-03-28 05:42:58+00",7.7,8.7,,38.8,-278,-188,13,1022.68,38.8,0
"2018-03-28 05:47:58+00",8.1,9.1,,38.7,-270,-212,7,1022.3,38.8,0
"2018-03-28 05:52:58+00",6.9,8.9,,38.7,-197,-246,6,1022.2,38.7,0
"2018-03-28 05:57:58+00",6.9,7.9,,38.7,-189,-250,8,1021.97,38.6,0
"2018-03-28 06:02:58+00",6.8,7.8,,38.7,-196,-219,7,1021.95,38.7,0
"2018-03-28 06:07:58+00",6.1,7.1,,38.7,-153,-214,9,1021.82,38.7,0
"2018-03-28 06:12:58+00",7.3,8.3,,38.7,-190,-263,6,1021.6,38.7,0
"2018-03-28 06:17:58+00",8.1,9.1,,38.7,-186,-304,-4,1021.56,38.7,0
"2018-03-28 06:22:58+00",6.4,7.4,,38.7,-155,-238,13,1021.36,38.6,0
"2018-03-28 06:27:58+00",5.3,6.3,,38.7,-151,-184,27,1021.34,38.6,0
"2018-03-28 06:32:58+00",8.1,9.1,,38.7,-260,-234,-2,1021.54,38.7,0
"2018-03-28 06:37:58+00",6.6,7.6,,38.8,-207,-214,9,1021.55,38.7,0
"2018-03-28 06:42:58+00",6.7,7.7,,38.7,-188,-235,5,1021.43,38.7,0
"2018-03-28 06:47:58+00",7.7,8.7,,38.7,-144,-295,-5,1021.16,38.7,0
"2018-03-28 06:52:58+00",7.7,8.7,,38.7,-139,-294,-3,1020.9,38.6,0
"2018-03-28 06:57:58+00",7.0,8.0,,38.8,-105,-281,7,1020.88,38.7,0
"2018-03-28 07:02:58+00",7.7,8.7,,38.8,-155,-293,3,1020.94,38.6,0
"2018-03-28 07:07:58+00",8.3,10.3,,38.8,-98,-333,-1,1020.59,38.7,0
"2018-03-28 07:12:58+00",5.2,7.2,,38.8,-70,-203,-1,1020.72,38.7,0
"2018-03-28 07:17:58+00",6.5,7.5,,38.9,-67,-262,4,1020.28,38.7,0
"2018-03-28 07:22:58+00",6.2,7.2,,38.9,-32,-257,-1,1020.17,38.8,0
"2018-03-28 07:27:58+00",8.0,10.0,,38.9,-76,-330,4,1020.13,38.8,0
"2018-03-28 07:32:58+00",6.8,9.8,,39,-54,-280,-4,1020.06,38.8,0
"2018-03-28 07:37:58+00",8.5,10.5,,39.1,-114,-346,4,1019.98,38.9,0
"2018-03-28 07:42:58+00",9.8,11.8,,39.1,-179,-383,-4,1020.14,39,0
"2018-03-28 07:47:58+00",10.1,12.1,,39.2,-270,-371,3,1020.57,39.1,0
"2018-03-28 07:52:58+00",9.5,10.5,,39.3,-278,-334,7,1020.56,39.2,0
"2018-03-28 07:57:58+00",8.6,9.6,,39.3,-258,-282,3,1020.47,39.2,0
"2018-03-28 08:02:58+00",9.7,10.7,,39.3,-216,-364,7,1020.03,39.2,0
"2018-03-28 08:07:58+00",9.8,10.8,,39.3,-136,-388,-7,1019.66,39.2,0
"2018-03-28 08:12:58+00",10.1,12.1,,39.3,-179,-397,3,1019.65,39.2,0
"2018-03-28 08:17:58+00",8.4,10.4,,39.3,-142,-333,6,1019.47,39.2,0
"2018-03-28 08:22:58+00",10.1,12.1,,39.3,-179,-393,-1,1019.43,39.2,0
"2018-03-28 08:27:58+00",7.8,8.8,,39.4,-140,-305,6,1019.5,39.3,0
"2018-03-28 08:32:58+00",9.8,11.8,,39.4,-211,-375,4,1019.54,39.3,0
"2018-03-28 08:37:58+00",10.2,11.2,,39.4,-253,-367,0,1019.5,39.4,0
"2018-03-28 08:42:58+00",11.3,12.3,,39.5,-318,-395,3,1019.57,39.4,0
"2018-03-28 08:47:58+00",7.9,9.9,,39.6,-224,-274,19,1019.56,39.5,0
"2018-03-28 08:52:58+00",9.9,10.9,,39.6,-265,-360,2,1019.55,39.5,0
"2018-03-28 08:57:58+00",9.6,10.6,,39.6,-207,-360,5,1019.32,39.5,0
"2018-03-28 09:02:58+00",9.7,10.7,,39.6,-211,-369,7,1019.22,39.5,0
"2018-03-28 09:07:58+00",9.6,11.6,,39.7,-211,-359,-3,1019.29,39.6,0
"2018-03-28 09:12:58+00",9.7,10.7,,39.8,-217,-365,-4,1019.29,39.7,0
"2018-03-28 09:17:58+00",9.4,10.4,,39.8,-245,-339,2,1019.21,39.7,0
"2018-03-28 09:22:58+00",9.4,10.4,,39.9,-259,-331,7,1019.29,39.8,0
"2018-03-28 09:27:58+00",8.2,9.2,,39.9,-257,-266,14,1019.4,39.8,0
"2018-03-28 09:32:58+00",8.9,9.9,,39.9,-247,-319,7,1019.54,39.8,0
"2018-03-28 09:37:58+00",8.5,9.5,,39.9,-198,-317,5,1019.13,39.7,0
"2018-03-28 09:42:58+00",9.2,10.2,,39.9,-199,-349,0,1019.11,39.7,0
"2018-03-28 09:47:58+00",9.7,10.7,,39.9,-277,-336,3,1019.23,39.7,0
"2018-03-28 09:52:58+00",8.3,9.3,,39.9,-260,-282,13,1019.19,39.8,0
"2018-03-28 09:57:58+00",8.3,9.3,,39.9,-180,-310,-13,1018.89,39.7,0
"2018-03-28 10:02:58+00",8.4,9.4,,39.8,-207,-314,-7,1018.81,39.7,0
"2018-03-28 10:07:58+00",6.7,8.7,,39.8,-94,-267,12,1018.87,39.7,0
"2018-03-28 10:12:58+00",6.8,7.8,,39.8,-102,-271,0,1018.86,39.7,0
"2018-03-28 10:17:58+00",6.5,7.5,,39.8,-112,-255,3,1018.79,39.7,0
"2018-03-28 10:22:58+00",4.5,6.5,,39.8,-39,-175,7,1018.72,39.7,0
"2018-03-28 10:27:58+00",5.6,6.6,,39.9,-40,-231,-8,1018.79,39.7,0
"2018-03-28 10:32:58+00",5.3,6.3,,39.8,-73,-206,3,1018.78,39.7,0
"2018-03-28 10:37:58+00",7.7,8.7,,39.9,-148,-289,-9,1018.79,39.7,0
"2018-03-28 10:42:58+00",7.0,7.0,,39.9,-117,-268,-4,1018.77,39.8,0
"2018-03-28 10:47:58+00",6.7,7.7,,39.9,-92,-275,11,1018.75,39.8,0
"2018-03-28 10:52:58+00",6.5,7.5,,40,-145,-243,6,1019.08,39.9,0
"2018-03-28 10:57:58+00",6.9,7.9,,40,-169,-255,10,1019.2,39.9,0
"2018-03-28 11:02:58+00",7.0,8.0,,40,-187,-252,14,1019.17,39.9,0
"2018-03-28 11:07:58+00",7.7,8.7,,40,-228,-259,4,1019.38,40,0
"2018-03-28 11:12:58+00",7.8,8.8,,40.1,-216,-273,8,1019.33,40,0
"2018-03-28 11:17:58+00",7.7,8.7,,40.1,-204,-273,8,1019.18,40.1,0
"2018-03-28 11:22:58+00",9.1,10.1,,40.1,-258,-310,3,1019.24,40.1,0
"2018-03-28 11:27:58+00",8.9,9.9,,40.2,-247,-313,2,1019.16,40.1,0
"2018-03-28 11:32:58+00",9.3,10.3,,40.3,-258,-330,7,1019.12,40.2,0
"2018-03-28 11:37:58+00",9.6,10.6,,40.3,-241,-350,0,1018.89,40.2,0
"2018-03-28 11:42:58+00",8.9,10.9,,40.3,-244,-322,13,1018.86,40.3,0
"2018-03-28 11:47:58+00",10.7,10.7,,40.3,-248,-403,0,1018.89,40.3,0
"2018-03-28 11:52:58+00",11.7,12.7,,40.3,-280,-434,3,1018.9,40.3,0
"2018-03-28 11:57:58+00",10.5,11.5,,40.4,-257,-388,0,1018.79,40.4,0
"2018-03-28 12:02:58+00",10.1,11.1,,40.4,-248,-375,3,1018.69,40.5,0
"2018-03-28 12:07:58+00",9.7,10.7,,40.5,-171,-382,8,1018.55,40.5,0.4
"2018-03-28 12:12:58+00",9.6,10.6,,40.5,-225,-363,9,1018.59,40.6,0
"2018-03-28 12:17:58+00",9.7,11.7,,40.5,-188,-374,1,1018.56,40.7,1
"2018-03-28 12:22:58+00",9.0,10.0,,40.6,-252,-319,15,1018.65,40.7,0
"2018-03-28 12:27:58+00",9.1,10.1,,40.6,-279,-301,4,1018.73,40.8,0
"2018-03-28 12:32:58+00",8.7,9.7,,40.7,-205,-326,3,1018.58,40.9,8.3
"2018-03-28 12:37:58+00",8.0,10.0,,40.7,-228,-275,13,1018.62,40.9,2.6
"2018-03-28 12:42:58+00",8.6,9.6,,40.8,-256,-291,24,1018.63,41.1,2.5
"2018-03-28 12:47:58+00",9.2,11.2,,40.9,-237,-342,5,1018.63,41.1,4.1
"2018-03-28 12:52:58+00",9.0,10.0,,41,-215,-336,7,1018.41,41.2,19.6
"2018-03-28 12:57:58+00",10.7,11.7,,41,-285,-393,-4,1018.24,41.4,22.7
"2018-03-28 13:02:58+00",11.5,13.5,,41.1,-358,-380,10,1018.36,41.4,13.2
"2018-03-28 13:07:58+00",10.3,12.3,,41.1,-326,-318,7,1018.28,41.5,36.1
"2018-03-28 13:12:58+00",9.9,10.9,,41.3,-312,-312,6,1018.13,41.7,54.2
"2018-03-28 13:17:58+00",11.4,13.4,,41.3,-368,-335,1,1018.23,41.8,37.6
"2018-03-28 13:22:58+00",10.2,11.2,,41.3,-316,-317,9,1018.08,42,64.4
"2018-03-28 13:27:58+00",12.5,14.5,,41.4,-410,-350,6,1018.05,42.1,59.3
"2018-03-28 13:32:58+00",11.7,12.7,,41.4,-385,-342,7,1017.96,42.1,70.7
"2018-03-28 13:37:58+00",12.3,13.3,,41.5,-396,-368,0,1017.95,42.2,70.1
"2018-03-28 13:42:58+00",11.0,12.0,,41.6,-321,-376,9,1017.71,42.5,109
"2018-03-28 13:47:58+00",10.7,12.7,,41.8,-334,-346,3,1017.73,42.7,97.8
"2018-03-28 13:52:58+00",11.9,13.9,,41.9,-379,-368,5,1017.65,42.8,85.8
"2018-03-28 13:57:58+00",9.5,11.5,,42,-287,-320,23,1017.36,42.9,94.9
"2018-03-28 14:02:58+00",10.2,11.2,,42.1,-316,-326,20,1017.46,43.1,121.1
"2018-03-28 14:07:58+00",12.8,14.8,,42,-436,-336,3,1017.56,43,66.4
"2018-03-28 14:12:58+00",12.5,13.5,,42,-405,-347,-7,1017.55,43.2,222.3
"2018-03-28 14:17:58+00",12.0,13.0,,42.4,-377,-391,27,1017.4,43.9,243.2
"2018-03-28 14:22:58+00",13.7,15.7,,42.5,-440,-391,0,1017.18,44.4,277.3
"2018-03-28 14:27:58+00",13.4,15.4,,42.8,-449,-379,23,1017.12,44.6,240
"2018-03-28 14:32:58+00",13.1,14.1,,42.8,-436,-383,14,1017.03,44.6,196.7
"2018-03-28 14:37:58+00",13.3,15.3,,42.8,-522,-302,23,1017.26,44.6,208.8
"2018-03-28 14:42:58+00",11.6,13.6,,42.8,-435,-277,0,1017.39,44.6,189.1
"2018-03-28 14:47:58+00",12.9,13.9,,43,-445,-346,13,1017.17,44.8,342.1
"2018-03-28 14:52:58+00",13.2,14.2,,43.2,-414,-411,-2,1016.93,45.5,405.4
"2018-03-28 14:57:58+00",12.3,14.3,,43.5,-486,-283,29,1017.17,45.9,243.6
"2018-03-28 15:02:58+00",11.9,14.9,,43.6,-466,-273,33,1017.26,45.8,222.8
"2018-03-28 15:07:58+00",10.6,12.6,,43.6,-395,-254,18,1016.82,45.6,310.1
"2018-03-28 15:12:58+00",9.9,11.9,,43.8,-349,-263,43,1016.79,45.9,268.6
"2018-03-28 15:17:58+00",9.9,11.9,,43.7,-291,-344,5,1016.97,45.8,214.6
"2018-03-28 15:22:58+00",10.5,11.5,,44.1,-343,-312,5,1016.93,46.3,196.4
"2018-03-28 15:27:58+00",10.3,12.3,,44.2,-330,-320,9,1017.16,46.1,159.1
"2018-03-28 15:32:58+00",10.4,11.4,,44.5,-340,-295,18,1017.06,46.6,351.4
"2018-03-28 15:37:58+00",10.6,12.6,,45,-340,-312,0,1016.97,47.3,275.8
"2018-03-28 15:42:58+00",10.9,11.9,,45,-380,-279,6,1016.9,47.4,242.2
"2018-03-28 15:47:58+00",10.3,12.3,,45.1,-342,-301,25,1017.05,47.4,223
"2018-03-28 15:52:58+00",10.1,12.1,,45.1,-252,-378,10,1016.79,47.2,225.9
"2018-03-28 15:57:58+00",10.1,12.1,,45.4,-317,-325,1,1017.01,47.4,142.4
"2018-03-28 16:02:58+00",9.1,10.1,,45.4,-304,-245,1,1017.14,47.2,89.8
"2018-03-28 16:07:58+00",7.4,8.4,,45.5,-229,-233,29,1017.09,47,92.6
"2018-03-28 16:12:58+00",9.5,10.5,,45.4,-288,-288,-11,1017.16,47,135
"2018-03-28 16:17:58+00",8.4,10.4,,45.5,-242,-290,6,1016.99,47,105.7
"2018-03-28 16:22:58+00",10.0,11.0,,45.7,-227,-375,1,1016.73,47.1,108.6
"2018-03-28 16:27:58+00",8.4,9.4,,45.7,-224,-297,-17,1016.77,47,117.9
"2018-03-28 16:32:58+00",8.0,9.0,,45.9,-181,-297,0,1016.85,47.1,103
"2018-03-28 16:37:58+00",6.7,8.7,,46.2,-175,-250,29,1016.65,47.7,206.6
"2018-03-28 16:42:58+00",6.5,8.5,,46.5,-164,-228,18,1016.75,48.3,155
"2018-03-28 16:47:58+00",6.4,7.4,,46.7,-136,-236,11,1016.85,48.6,97.3
"2018-03-28 16:52:58+00",6.6,7.6,,47.2,-61,-272,14,1016.34,48.7,155.6
"2018-03-28 16:57:58+00",8.9,9.9,,47,67,-376,-15,1016.11,48.5,130
"2018-03-28 17:02:58+00",11.0,12.0,,45.3,15,-460,-31,1016.34,46.8,138
"2018-03-28 17:07:58+00",9.1,12.1,,45,18,-378,3,1016.38,46.2,98
"2018-03-28 17:12:58+00",9.4,11.4,,45.1,7,-400,-13,1016.2,46,84.7
"2018-03-28 17:17:58+00",9.3,11.3,,45.4,-52,-387,7,1016.29,46.4,180.5
"2018-03-28 17:22:58+00",10.5,13.5,,45.7,-114,-436,-6,1016.49,46.5,66.3
"2018-03-28 17:27:58+00",10.9,12.9,,45.9,-111,-461,-8,1016.14,46.8,131.8
"2018-03-28 17:32:58+00",11.5,13.5,,45.7,-107,-476,-5,1016.1,46.8,104.6
"2018-03-28 17:37:58+00",8.2,11.2,,46.1,-65,-343,3,1016.06,47,126.2
"2018-03-28 17:42:58+00",7.5,10.5,,46.1,-61,-303,26,1015.99,47.3,133.4
"2018-03-28 17:47:58+00",8.3,10.3,,46.1,-108,-348,13,1016.17,47.2,85.6
"2018-03-28 17:52:58+00",10.6,12.6,,45.7,-108,-441,-8,1016.16,46.7,71.4
"2018-03-28 17:57:58+00",10.8,12.8,,45.4,-131,-436,4,1016.24,46.3,71.7
"2018-03-28 18:02:58+00",11.1,14.1,,45.1,-135,-461,-3,1016.14,46.1,64.7
"2018-03-28 18:07:58+00",12.5,15.5,,45.3,-197,-499,1,1015.95,46.2,54.3
"2018-03-28 18:12:58+00",11.1,12.1,,45.2,-159,-449,4,1015.76,46.1,79.7
"2018-03-28 18:17:58+00",11.6,12.6,,45.2,-185,-462,-10,1015.86,46.1,120.7
"2018-03-28 18:22:58+00",12.0,13.0,,45,-252,-448,-17,1016.16,46.2,142.5
"2018-03-28 18:27:58+00",8.3,10.3,,45.1,-109,-339,13,1015.94,46.3,71.9
"2018-03-28 18:32:58+00",9.5,10.5,,45.2,-193,-356,-15,1016.04,46.3,100.3
"2018-03-28 18:37:58+00",8.0,9.0,,45.6,-154,-311,-2,1016.06,46.7,153.4
"2018-03-28 18:42:58+00",8.0,10.0,,45.8,-108,-317,6,1015.98,46.9,108.5
"2018-03-28 18:47:58+00",9.2,11.2,,45.9,-144,-366,5,1016,47.1,70.7
"2018-03-28 18:52:58+00",9.0,10.0,,45.9,-164,-349,-6,1015.98,46.9,49.3
"2018-03-28 18:57:58+00",11.3,12.3,,45.9,-220,-429,-12,1016.07,46.8,32
"2018-03-28 19:02:58+00",9.2,11.2,,45.6,-178,-352,9,1015.83,46.3,25.9
"2018-03-28 19:07:58+00",9.6,10.6,,45.5,-213,-357,-4,1015.83,46.2,17.5
"2018-03-28 19:12:58+00",10.7,11.7,,45.3,-191,-420,4,1015.79,45.9,17.4
"2018-03-28 19:17:58+00",8.8,10.8,,45.3,-186,-336,14,1015.95,45.9,39
"2018-03-28 19:22:58+00",8.7,9.7,,45.4,-172,-333,-2,1015.87,45.9,43.3
"2018-03-28 19:27:58+00",9.7,10.7,,45.4,-203,-366,-1,1015.85,46,76.6
"2018-03-28 19:32:58+00",10.4,11.4,,45.5,-217,-397,-5,1015.77,46.3,160.3
"2018-03-28 19:37:58+00",9.9,10.9,,45.7,-207,-378,-4,1015.8,46.4,80.8
"2018-03-28 19:42:58+00",10.1,12.1,,45.8,-176,-397,1,1015.82,46.5,62.6
"2018-03-28 19:47:58+00",9.9,11.9,,45.9,-183,-385,-8,1015.87,46.6,44.2
"2018-03-28 19:52:58+00",10.2,12.2,,46,-216,-390,0,1015.82,46.6,28.5
"2018-03-28 19:57:58+00",10.4,11.4,,46,-204,-402,-6,1015.75,46.5,17.5
"2018-03-28 20:02:58+00",11.2,12.2,,45.9,-230,-432,-1,1015.75,46.4,23.4
"2018-03-28 20:07:58+00",9.8,11.8,,46.1,-224,-369,10,1015.67,46.6,51.5
"2018-03-28 20:12:58+00",10.5,12.5,,46.2,-227,-401,7,1015.58,46.7,57.9
"2018-03-28 20:17:58+00",10.9,12.9,,46.3,-190,-428,4,1015.58,46.8,54.3
"2018-03-28 20:22:58+00",9.3,10.3,,46.3,-156,-371,-3,1015.59,46.8,35.6
"2018-03-28 20:27:58+00",10.7,11.7,,46.2,-166,-426,0,1015.48,46.6,17
"2018-03-28 20:32:58+00",8.9,9.9,,46.2,-147,-350,8,1015.56,46.6,9.1
"2018-03-28 20:37:58+00",8.3,10.3,,45.9,-137,-328,9,1015.46,46.3,14.1
"2018-03-28 20:42:58+00",9.9,10.9,,45.6,-200,-380,-1,1015.29,46.1,9.9
"2018-03-28 20:47:58+00",9.5,10.5,,45.7,-198,-356,-6,1015.27,46.1,17.7
"2018-03-28 20:52:58+00",8.7,9.7,,45.7,-135,-352,14,1015.21,46.1,19
"2018-03-28 20:57:58+00",8.9,9.9,,45.8,-197,-337,10,1015.16,46.2,21.5
"2018-03-28 21:02:58+00",8.8,10.8,,45.8,-179,-340,13,1015.09,46.3,64.7
"2018-03-28 21:07:58+00",8.5,9.5,,46,-227,-313,27,1015.31,46.5,24.4
"2018-03-28 21:12:58+00",10.0,12.0,,46,-275,-354,0,1015.31,46.5,14.6
"2018-03-28 21:17:58+00",10.0,11.0,,46,-242,-369,-3,1014.98,46.5,20.4
"2018-03-28 21:22:58+00",11.7,13.7,,46.1,-310,-429,5,1015.29,46.5,0
"2018-03-28 21:27:58+00",10.6,11.6,,46,-280,-387,3,1015.29,46.3,0
"2018-03-28 21:32:58+00",8.9,9.9,,45.8,-228,-325,5,1015.1,46.2,9.3
"2018-03-28 21:37:58+00",7.8,8.8,,45.8,-178,-289,-1,1014.84,46.2,22.4
"2018-03-28 21:42:58+00",9.6,11.6,,46,-252,-351,6,1015.05,46.4,21.3
"2018-03-28 21:47:58+00",10.5,11.5,,46,-311,-363,3,1015.37,46.4,18.5
"2018-03-28 21:52:58+00",8.7,9.7,,45.9,-287,-242,5,1015.37,46.4,9.3
"2018-03-28 21:57:58+00",10.7,12.7,,46,-352,-299,6,1015.41,46.3,0
"2018-03-28 22:02:58+00",11.4,13.4,,45.8,-376,-316,7,1015.41,46.1,0
"2018-03-28 22:07:58+00",10.3,11.3,,45.8,-334,-289,8,1015.36,45.9,0
"2018-03-28 22:12:58+00",9.1,10.1,,45.7,-287,-296,-1,1015.38,45.7,0
"2018-03-28 22:17:58+00",9.3,10.3,,45.7,-280,-310,3,1015.48,45.7,0
"2018-03-28 22:22:58+00",8.9,9.9,,45.7,-237,-320,4,1015.49,45.7,0
"2018-03-28 22:27:58+00",9.0,11.0,,45.7,-264,-312,-1,1015.59,45.6,0
"2018-03-28 22:32:58+00",8.9,9.9,,45.7,-280,-290,6,1015.68,45.6,0
"2018-03-28 22:37:58+00",9.6,10.6,,45.7,-320,-271,11,1015.85,45.5,0
"2018-03-28 22:42:58+00",9.9,10.9,,45.6,-341,-252,4,1015.99,45.3,0
"2018-03-28 22:47:58+00",10.4,11.4,,45.7,-333,-321,4,1015.95,45.2,0
"2018-03-28 22:52:58+00",10.8,11.8,,45.6,-319,-374,1,1015.83,45.1,0
"2018-03-28 22:57:58+00",10.6,11.6,,45.5,-289,-380,3,1015.71,45,0
"2018-03-28 23:02:58+00",11.2,12.2,,45.5,-292,-413,4,1015.66,45,0
"2018-03-28 23:07:58+00",9.2,11.2,,45.3,-248,-333,6,1015.75,44.9,0
"2018-03-28 23:12:58+00",8.9,9.9,,45.4,-231,-320,1,1015.87,44.9,0
"2018-03-28 23:17:58+00",7.4,8.4,,45.4,-234,-215,6,1016.18,44.9,0
"2018-03-28 23:22:58+00",7.8,8.8,,45.3,-239,-259,8,1016.14,44.9,0
"2018-03-28 23:27:58+00",7.6,8.6,,45.2,-244,-224,5,1016.29,44.8,0
"2018-03-28 23:32:58+00",6.7,7.7,,45.3,-156,-247,-1,1016.14,44.8,0
"2018-03-28 23:37:58+00",7.3,8.3,,45.3,-132,-280,-9,1016.1,44.8,0
"2018-03-28 23:42:58+00",7.2,8.2,,45.4,-129,-280,-3,1016.15,44.7,0
"2018-03-28 23:47:58+00",6.2,7.2,,45.5,-117,-236,-2,1016.32,44.8,0
"2018-03-28 23:52:58+00",6.9,7.9,,45.5,-128,-260,-1,1016.33,44.8,0
"2018-03-28 23:57:58+00",7.1,8.1,,45.6,-134,-270,-3,1016.41,44.9,0
